IRIDIUM 47 DEB

Satellite information

Favourite Embed

Satellite Type and Status

DEBRISIN ORBIT

Key statistics

Satellite IRIDIUM 47 DEB at a glance.

Uptime

10162

Days in orbit

Revolutions

≈ 14.3

Per day

Orbit

LEO

Low Earth Orbit

Inclination

86.3

Latest

Satellite identification and parameters

Extended collection of information and parameters for IRIDIUM 47 DEB.

Object identification

Identified? True

Debris? True

Object name: IRIDIUM 47 DEB

International designator: 1997-082L

Object number (NORAD): 40251

Object ID (CCSDS): 40251

Country: UNITED STATES OF AMERICA (US)

Current information (Y/N): Y

RCS size: SMALL

Orbital parameters

Period: 100.802 minutes

Inclination: 86.3273 deg

SMA: 7174.747 km

Apoapsis: 888.797 km

Periapsis: 704.428 km

RAAN: 120.5167 deg

Eccentricy: 0.01284844

Argument of periapsis: 223.866 deg

Mean anomaly: 135.2276 deg

Mean motion: 14.2854147 rev/day

Mean motion (dot): 0.00009425 rev/day2

B* drag term: 0.0034332547 1/REarth

Two-line elements (TLE)

Creation date: Oct. 15, 2025, 6:23 p.m.

Reference frame: TEME

Reference center: EARTH

Epoch: Oct. 14, 2025, 11:27 p.m. UTC

TLE line 0: 0 IRIDIUM 47 DEB

TLE line 1: 1 40251U 97082L 25287.97776903 .00009425 00000-0 34333-2 0 9998

TLE line 2: 2 40251 86.3273 120.5167 0128484 223.8660 135.2276 14.28541470566659

Live tracking on map

Real-time ground track for satellite IRIDIUM 47 DEB.

In-orbit conjunctions

A list of the most updated potential collisions computed for object IRIDIUM 47 DEB.

Target Orbit TCA Probability of collision Miss distance Type
COSMOS 540 LEO 2025-08-13 15:13:51 0.0002841589 608.0 (m) PAYLOAD
FENGYUN 1C DEB SSO 2025-05-09 07:27:09 0.0002965871 18.0 (m) DEBRIS
CZ-6A DEB LEO 2025-01-14 10:00:35 0.0001993152 669.0 (m) DEBRIS
SL-14 R/B LEO 2024-08-20 10:35:53 0.0003561715 212.0 (m) ROCKET BODY

Associated space launch

Iridium provides global mobile telecommunications services using a constellation of 66 low earth orbit satellites in a 86.4° inclined orbit. Although 77 satellites were originally envisioned for the system and spawned the name based on the 77th element in the periodic table, the system has been scaled back. Motorola's Satellite Communications Group designed and manufactured the Iridium satellites with Lockheed Martin providing the LM-700A spacecraft buses.

IRIDIUM 47 DEB was lifted into orbit during the mission ‘Delta II | Iridium 45 to 49’, on board a Delta II space rocket.

The launch took place on Dec. 20, 1997, 1:16 p.m. from Space Launch Complex 2W.

For more information about the launch, click the button.

Launch to space Delta II | Iridium 45 to 49
Delta II | Iridium 45 to 49

Agency: N/A

Status: Launch Successful

Launch date: Dec. 20, 1997, 1:16 p.m. UTC

Rocket: Delta II

Launch pad: Space Launch Complex 2W

Location: Vandenberg SFB, CA, USA

...

Latest news about this satellite

There are no fresh news available about this satellite. Check back as we update our databases every day.


Newsletter sign-up

Weekly statistics, charts and insights to help you stay on top of the space industry.